Location: downtown San Diego
(32.7310°N, 117.1990°W)
Time: 02:20:22
(UTC-08:00)

GPS 2-04 Rocket1 - Pass Details

Date: 12 July 2018
Orbit: 422 x 556 km, 35.6° (Epoch: 17 November)

Event Time Altitude Azimuth Distance (km) Brightness Sun altitude
Rises 21:34:52 0° 283° (WNW) 2,478 7.3 -17.6°
Reaches altitude 10° 21:37:02 10° 278° (W) 1,626 6.0 -17.9°
Maximum altitude 21:40:38 49° 203° (SSW) 635 2.9 -18.5°
Enters shadow 21:41:11 44° 174° (S) 677 2.9 -18.5°
